[[{"header":{"parameterUnit":"m.s-1","parameterCategory":1,"la1":30.2991,"la2":30.254,"lo1":-89.0895,"lo2":-89.0444,"dy":0.0017,"dx":0.0017,"nx":28,"ny":28,"refTime":"2024-04-25T09:00:00:Z","depth":0,"parameterNumber":2,"parameterNumberName":"U-component_of_WINDS"},"data":[0,0,0,0,0,0,0,0,0,0,0,0,0,0,0,0,0,0,0,0,0,0,0,0,0,0,0,0,0,0,0,0,0,0,0,0,0,0,0,0,0,0,0,0,0,0,0,0,0,0,0,0,0,0,0,0,0,0,-5.948,-5.9481,0,-5.9577,-5.9578,-5.9579,-5.953,-5.9528,-5.9525,-5.9523,-5.9619,-5.9624,-5.9629,0,0,0,0,0,0,0,0,0,0,0,0,0,-5.925,-5.9255,-5.948,-5.9481,-5.9482,-5.9577,-5.9578,-5.9579,-5.9531,-5.9528,-5.9525,-5.9522,-5.9617,-5.9623,-5.9629,0,0,0,0,0,0,0,0,0,0,0,0,0,-5.9349,-5.9256,-5.948,-5.947,-5.947,-5.9577,-5.9578,-5.958,-5.9532,-5.9528,-5.9524,-5.952,-5.9615,-5.9623,-5.963,-5.9751,0,0,-5.9652,-5.9655,0,0,0,0,0,0,0,0,-5.9343,-5.9357,-5.947,-5.947,-5.9471,-5.9538,-5.9532,-5.9637,-5.9533,-5.9508,-5.9523,-5.9519,-5.9595,-5.9604,-5.963,-5.9756,-5.976,-5.9653,-5.9657,-5.9661,-5.9663,0,0,0,0,0,0,0,-5.9336,-5.9353,-5.9518,-5.9471,-5.9472,-5.9459,-5.9469,-5.9552,-5.9571,-5.951,-5.9506,-5.9519,-5.9594,-5.9623,-5.9632,-5.9761,-5.9653,-5.9659,-5.9664,-5.9667,-5.9991,-5.9995,0,0,0,0,0,0,-5.933,-5.9347,-5.9515,-5.9521,-5.9396,-5.9467,-5.9478,-5.952,-5.957,-5.9574,-5.9522,-5.9516,-5.9612,-5.9623,-5.9635,-5.9779,-5.9661,-5.9667,-5.9672,-5.9987,-5.9992,-5.9996,0,0,0,0,0,0,-5.9326,-5.9346,-5.9511,-5.9433,-5.9454,-5.9475,-5.9523,-5.9524,-5.9552,-5.958,-5.9582,-5.9548,-5.961,-5.9625,-5.9723,-5.9781,-5.9671,-5.9677,-5.9982,-5.9988,-5.9994,-6.0068,0,0,0,0,0,0,-5.9319,-5.9344,-5.9391,-5.9435,-5.9458,-5.9598,-5.9526,-5.9529,-5.9566,-5.9559,-5.9605,-5.9608,-5.9608,-5.9712,-5.973,-5.979,-5.9683,-5.9976,-5.9985,-5.9992,-6.006,-6.0076,-6.009,0,0,0,0,0,-5.9311,-5.9407,-5.9394,-5.9414,-5.9517,-5.9601,-5.9614,-5.9613,-5.9571,-5.9617,-5.9635,-5.9607,-5.9774,-5.9723,-5.9742,-5.9805,-5.9973,-5.9982,-5.9991,-6.0054,-6.0073,-6.0089,0,0,0,0,0,0,-5.9368,-5.9413,-5.9398,-5.9511,-5.9553,-5.9593,-5.9651,-5.9633,-5.9687,-5.9678,-5.9673,-5.9684,-5.9785,-5.9806,-5.9748,-5.9925,-5.9866,-5.988,-5.9907,-5.9926,-5.994,-5.9931,-5.9689,0,0,0,0,0,-5.9394,-5.946,-5.9495,-5.9592,-5.9614,-5.963,-5.9666,-5.9662,-5.9704,-5.9721,-5.9746,-5.9787,-5.9849,-5.9889,-5.9947,-6.0065,-6.0073,-6.0118,-6.0133,-6.0145,-6.0155,-6.0218,-6.0237,-6.0027,-6.0027,-6.0027,0,0,-5.9447,-5.948,-5.9522,-5.9604,-5.9636,-5.9703,-5.9644,-5.9718,-5.9767,-5.9732,-5.9825,-5.9846,-5.9892,-6.0,-6.0049,-6.002,-6.0216,-6.0157,-6.0166,-6.017,-6.0229,-6.0249,-6.0267,-6.0034,-6.0032,-6.0031,0,0,-5.9578,-5.9611,-5.9694,-5.9728,-5.9778,-5.9788,-5.9809,-5.9852,-5.9864,-5.9959,-5.9934,-5.9993,-6.01,-6.0133,-6.0164,-6.0311,-6.0287,-6.0331,-6.0405,-6.0466,-6.0483,-6.0497,-6.0547,-6.0565,-6.0342,-6.0343,-6.0343,0,-5.9637,-5.9739,-5.9739,-5.9815,-5.9851,-5.9826,-5.9909,-5.9942,-6.0008,-6.0033,-6.0001,-6.0134,-6.0164,-6.0279,-6.0315,-6.0342,-6.0363,-6.0323,-6.0481,-6.0495,-6.0509,-6.0556,-6.0575,-6.0347,-6.0347,-6.0346,-6.0346,0,-5.9808,-5.9879,-5.994,-6.0006,-6.005,-6.0129,-6.0141,-6.0186,-6.0179,-6.0193,-6.0289,-6.0325,-6.0389,-6.0417,-6.041,-6.0531,-6.0512,-6.0481,-6.0421,-6.0533,-6.0578,-6.0596,-6.0354,-6.0352,-6.0351,-6.035,0,0,-5.9972,-6.004,-6.0062,-6.0091,-6.0146,-6.02,-6.0279,-6.0343,-6.0381,-6.0429,-6.0493,-6.0585,-6.0557,-6.0593,-6.059,-6.0645,-6.0756,-6.0607,-6.0608,-6.063,-6.0889,-6.0909,-6.093,-6.0743,-6.0747,-6.0749,-6.0884,0,-6.0104,-6.0242,-6.0246,-6.0372,-6.0437,-6.0415,-6.0484,-6.0524,-6.054,-6.0597,-6.0614,-6.0679,-6.0638,-6.0659,-6.0713,-6.0731,-6.0808,-6.0723,-6.08,-6.0803,-6.0784,-6.0954,-6.0975,-6.11,-6.0902,-6.0905,-6.0907,0,-6.0275,-6.0329,-6.0462,-6.0508,-6.0535,-6.0597,-6.0656,-6.0712,-6.0758,-6.0765,-6.0807,-6.0797,-6.0877,-6.0819,-6.0928,-6.0869,-6.0903,-6.0917,-6.0922,-6.0925,-6.0858,-6.0958,-6.114,-6.1158,-6.0935,-6.0933,-6.0931,0,-6.0378,-6.0484,-6.0577,-6.0603,-6.066,-6.0704,-6.0729,-6.0772,-6.081,-6.0863,-6.0888,-6.095,-6.0982,-6.103,-6.1037,-6.0994,-6.1145,-6.1088,-6.1152,-6.1152,-6.118,-6.1177,-6.1366,-6.1209,-6.1209,-6.1209,-6.1208,0,-6.0522,-6.0603,-6.0624,-6.068,-6.077,-6.0776,-6.0865,-6.0887,-6.0925,-6.0985,-6.0972,-6.1028,-6.1036,-6.1094,-6.1101,-6.1189,-6.1205,-6.1212,-6.1211,-6.121,-6.1209,-6.1228,-6.1218,-6.1214,-6.1212,-6.1211,-6.1211,0,-6.0649,-6.0667,-6.0766,-6.0813,-6.0826,-6.0891,-6.093,-6.0984,-6.1,-6.1076,-6.1094,-6.1119,-6.1187,-6.1201,-6.1281,-6.1285,-6.1389,-6.1383,-6.1373,-6.1371,-6.1433,-6.1425,-6.1637,-6.1664,-6.1493,-6.1495,-6.1496,0,-6.0737,-6.0799,-6.0854,-6.0893,-6.0921,-6.0986,-6.1026,-6.1034,-6.1077,-6.1135,-6.1182,-6.1249,-6.1302,-6.1412,-6.1437,-6.1498,-6.149,-6.1561,-6.1499,-6.1496,-6.1487,-6.1482,-6.1487,-6.1571,-6.1572,-6.1574,-6.1575,0,-6.0891,-6.0898,-6.0956,-6.1019,-6.1068,-6.1117,-6.1164,-6.1197,-6.1212,-6.1261,-6.1331,-6.1373,-6.1456,-6.1522,-6.1584,-6.161,-6.1594,-6.1596,-6.1613,-6.161,-6.16,-6.1603,-6.1401,-6.1589,-6.1588,-6.1587,-6.1586,-6.1585,-6.0999,-6.1053,-6.11,-6.1166,-6.1203,-6.1248,-6.13,-6.1324,-6.1383,-6.1452,-6.1454,-6.153,-6.1576,-6.1658,-6.1688,-6.1747,-6.1724,-6.175,-6.1756,-6.1761,-6.1765,-6.1595,-6.1759,-6.1759,-6.1758,-6.1758,-6.1758,0,-6.1149,-6.1179,-6.1241,-6.1307,-6.1359,-6.1345,-6.1396,-6.144,-6.1508,-6.1552,-6.1606,-6.1687,-6.1752,-6.1783,-6.1847,-6.1888,-6.1883,-6.1904,-6.1899,-6.1905,-6.1783,-6.176,-6.1908,-6.1908,-6.1908,-6.1908,-6.1908,-6.1908,-6.1233,-6.1323,-6.1335,-6.1443,-6.1473,-6.1548,-6.1578,-6.1619,-6.1655,-6.1746,-6.18,-6.1821,-6.186,-6.1928,-6.1986,-6.1994,-6.2016,-6.204,-6.2044,-6.1929,-6.1913,-6.1899,-6.1877,-6.2046,-6.2046,-6.216,-6.2161,-6.2162]},{"header":{"parameterUnit":"m.s-1","parameterCategory":1,"la1":30.2991,"la2":30.254,"lo1":-89.0895,"lo2":-89.0444,"dy":0.0017,"dx":0.0017,"nx":28,"ny":28,"refTime":"2024-04-25T09:00:00:Z","depth":0,"parameterNumber":3,"parameterNumberName":"V-component_of_WINDS"},"data":[0,0,0,0,0,0,0,0,0,0,0,0,0,0,0,0,0,0,0,0,0,0,0,0,0,0,0,0,0,0,0,0,0,0,0,0,0,0,0,0,0,0,0,0,0,0,0,0,0,0,0,0,0,0,0,0,0,0,3.8743,3.8743,0,3.8722,3.8721,3.8721,3.8652,3.865,3.8649,3.8647,3.8623,3.8624,3.8625,0,0,0,0,0,0,0,0,0,0,0,0,0,3.8725,3.8726,3.8743,3.8743,3.8743,3.8722,3.8721,3.8721,3.8652,3.865,3.8648,3.8647,3.8623,3.8624,3.8625,0,0,0,0,0,0,0,0,0,0,0,0,0,3.8721,3.8726,3.8743,3.8706,3.8702,3.8722,3.8721,3.8721,3.8652,3.865,3.8648,3.8646,3.8622,3.8624,3.8625,3.8678,0,0,3.8628,3.8629,0,0,0,0,0,0,0,0,3.8721,3.8722,3.8712,3.8708,3.8704,3.8687,3.8706,3.8706,3.8653,3.8671,3.8647,3.8645,3.8646,3.8645,3.8646,3.8677,3.8676,3.8628,3.8629,3.863,3.863,0,0,0,0,0,0,0,3.8722,3.8722,3.8735,3.8712,3.8707,3.869,3.8687,3.8706,3.8672,3.8669,3.8664,3.8663,3.8644,3.8645,3.8645,3.8675,3.8628,3.8629,3.863,3.8631,3.8751,3.8753,0,0,0,0,0,0,3.8728,3.8723,3.8735,3.8734,3.8708,3.8692,3.8689,3.8695,3.8671,3.8666,3.8665,3.866,3.8644,3.8644,3.8644,3.8705,3.863,3.8631,3.8631,3.8749,3.8752,3.8754,0,0,0,0,0,0,3.8727,3.8729,3.8736,3.8727,3.8727,3.8695,3.8703,3.8696,3.8697,3.8668,3.8661,3.8673,3.8642,3.8642,3.8671,3.8704,3.8631,3.8632,3.8746,3.875,3.8753,3.8829,0,0,0,0,0,0,3.8727,3.873,3.8749,3.8728,3.8728,3.8763,3.8705,3.8697,3.8699,3.8693,3.8673,3.8668,3.8641,3.8669,3.8672,3.8704,3.8633,3.8743,3.8747,3.8752,3.8823,3.8835,3.8845,0,0,0,0,0,3.8727,3.8771,3.8751,3.8752,3.8752,3.8765,3.8765,3.8733,3.8702,3.8722,3.8704,3.8669,3.87,3.8673,3.8675,3.8708,3.874,3.8746,3.8751,3.8818,3.8833,3.8844,0,0,0,0,0,0,3.8795,3.8767,3.8744,3.8783,3.8777,3.8754,3.8777,3.8749,3.8751,3.8744,3.8704,3.87,3.8735,3.8724,3.8694,3.8759,3.8714,3.8721,3.8765,3.8778,3.8788,3.8789,3.8634,0,0,0,0,0,3.8815,3.8829,3.8803,3.884,3.8838,3.8809,3.8814,3.879,3.8782,3.8779,3.8762,3.8756,3.8765,3.8771,3.8777,3.8822,3.8817,3.8846,3.8857,3.8866,3.8871,3.8896,3.8909,3.8773,3.8773,3.8773,0,0,3.8855,3.8842,3.8852,3.8853,3.8846,3.8862,3.8807,3.8825,3.8836,3.8781,3.8807,3.8796,3.8786,3.8824,3.8839,3.8816,3.8908,3.8873,3.888,3.8881,3.8903,3.8916,3.8927,3.8777,3.8776,3.8775,0,0,3.8936,3.8928,3.8957,3.8952,3.8943,3.8923,3.8931,3.8913,3.8903,3.8929,3.8889,3.8902,3.8917,3.8912,3.8911,3.8995,3.8963,3.8998,3.9053,3.9078,3.9089,3.9098,3.9128,3.9139,3.9004,3.9005,3.9005,0,3.8987,3.9009,3.8976,3.8998,3.9,3.8953,3.8984,3.898,3.8973,3.8975,3.895,3.8969,3.8959,3.8996,3.9017,3.9018,3.9025,3.8999,3.909,3.9099,3.9107,3.9135,3.9147,3.9009,3.9008,3.9008,3.9007,0,3.9073,3.9089,3.9114,3.911,3.9115,3.9141,3.9113,3.9122,3.9099,3.9082,3.9111,3.9098,3.9101,3.9108,3.9085,3.9142,3.9128,3.9097,3.9051,3.9125,3.9151,3.9161,3.9015,3.9013,3.9012,3.9011,0,0,3.9193,3.9173,3.9183,3.9181,3.9169,3.9181,3.9206,3.921,3.9219,3.9217,3.9237,3.9253,3.9225,3.9224,3.9201,3.9222,3.929,3.9188,3.9188,3.9208,3.9353,3.9376,3.9389,3.927,3.9272,3.9273,3.9354,0,3.927,3.9311,3.9284,3.933,3.9345,3.9302,3.9324,3.9319,3.9305,3.9316,3.9301,3.9313,3.9275,3.9274,3.9294,3.9278,3.9319,3.9272,3.9287,3.9288,3.929,3.9403,3.9426,3.9503,3.9364,3.9366,3.9367,0,3.9365,3.9368,3.9416,3.9403,3.9408,3.9428,3.9432,3.9443,3.9437,3.9426,3.9427,3.9399,3.9423,3.9379,3.9411,3.938,3.9385,3.9379,3.9381,3.938,3.9331,3.9404,3.9527,3.9538,3.9382,3.9381,3.938,0,3.9448,3.9465,3.9496,3.9496,3.9482,3.9497,3.9492,3.9484,3.9489,3.9492,3.9495,3.9501,3.9504,3.9509,3.9483,3.9454,3.952,3.9473,3.9511,3.9512,3.9525,3.9524,3.9649,3.953,3.953,3.953,3.9529,0,3.9537,3.9567,3.9534,3.9553,3.9587,3.9556,3.959,3.958,3.9574,3.9591,3.9555,3.9571,3.9536,3.9549,3.953,3.956,3.9561,3.9553,3.9547,3.9556,3.9557,3.9557,3.9551,3.9533,3.9532,3.9531,3.9531,0,3.9634,3.9613,3.9644,3.9629,3.9627,3.9652,3.9639,3.9656,3.9641,3.9663,3.9666,3.9643,3.9656,3.9632,3.9642,3.9629,3.9671,3.9657,3.9674,3.9669,3.9708,3.9705,3.9837,3.9853,3.9724,3.9726,3.9727,0,3.9692,3.9715,3.9703,3.9712,3.971,3.9724,3.9731,3.9702,3.971,3.9707,3.9725,3.9736,3.9743,3.9767,3.975,3.9758,3.9744,3.979,3.9745,3.9754,3.9745,3.9743,3.9746,3.9799,3.9801,3.9802,3.9803,0,3.9796,3.9785,3.9795,3.9803,3.9812,3.9816,3.9818,3.9828,3.9798,3.9808,3.9823,3.9829,3.984,3.9852,3.9857,3.9851,3.9822,3.9818,3.9827,3.9835,3.9844,3.984,3.9698,3.9814,3.9813,3.9812,3.9812,3.9811,3.9875,3.9894,3.989,3.9903,3.9902,3.9905,3.9921,3.991,3.9921,3.9929,3.9912,3.9931,3.9927,3.993,3.9928,3.9943,3.9922,3.9935,3.9938,3.9942,3.9948,3.9843,3.9943,3.9943,3.9943,3.9942,3.9942,0,3.9977,3.9973,3.9986,3.9991,4.0002,3.9976,3.9977,3.9988,4.0005,4.0004,4.0013,4.0031,4.0042,4.0028,4.0038,4.0052,4.0039,4.0055,4.0053,4.0053,3.9966,3.9957,4.0066,4.0066,4.0066,4.0066,4.0066,4.0066,4.0032,4.0063,4.0053,4.0084,4.0079,4.0098,4.0102,4.0105,4.0104,4.0125,4.0136,4.0127,4.0121,4.013,4.014,4.0136,4.014,4.0161,4.0152,4.0071,4.0059,4.0047,4.0039,4.0163,4.0163,4.0238,4.0239,4.0239]}]]